World > North America > United States > California > Rancho Mirage  

Rancho Mirage, CA Hourly Weather Updates

Feedback E-mail the Weather

Quick Clicks

Rancho Mirage, CA Weather Maps

°F °C°F °C
Rancho Mirage Weather Map
UTC Time: 4/23/2024, 04:12
Your Time:

Rancho Mirage, CA Regional Weather

Expires:202404230500;;219160
ASUS46 KLOX 230410
RWRCA 

SOUTHERN CALIFORNIA WEATHER ROUNDUP
NATIONAL WEATHER SERVICE OXNARD CALIFORNIA
900 PM PDT MON APR 22 2024

NOTE: "FAIR" INDICATES FEW OR NO CLOUDS BELOW 12,000 FEET WITH NO 
SIGNIFICANT WEATHER AND/OR OBSTRUCTIONS TO VISIBILITY.

  -  STATIONS PRECEEDED BY AN ASTERISK (*) ARE NOT NWS OR FAA 
     STATIONS AND ARE NOT SUBJECT TO NWS AND FAA QUALITY CONTROL.


CAZ032-033-061-230500-
SOUTHERN DESERTS

  
CITY           SKY/WX    TMP DP  RH WIND       PRES   REMARKS
BLYTHE         CLEAR     87  33  14 S13       29.71R                  
IMPERIAL       CLEAR     81  44  27 MISG      29.70R                  
PALM SPRINGS   CLEAR     81  53  37 NW16      29.73R                  
THERMAL        CLEAR     84  55  36 NW9       29.67R                  

$$

ELSEWHERE ACROSS THE WESTERN UNITED STATES AND MEXICO

  
CITY           SKY/WX    TMP DP  RH WIND       PRES   REMARKS
DEATH VALLEY,    N/A     96  30  10 SE2         N/A  HX  90           
DENVER, CO     MOCLDY    64  30  27 W13       29.87R                  
GRAND CANYON,  CLEAR     46  24  42 CALM      30.08R                  
HONOLULU, HI   MOSUNNY   79  63  57 NE13G23   30.06R                  
KAHULUI, MAUI  MOSUNNY   72  64  78 NE16G26   30.06R                  
LAKE TAHOE, CA PTCLDY    50  45  83 SW5       29.99R                  
LAS VEGAS, NV  CLEAR     84  21  10 S8        29.75R                  
MAMMOTH LAKES, CLEAR     56  24  28 SW10G18   30.01R                  
MEXICO CITY, M MOCLDY    63  46  55 CALM      30.35R                  
PHOENIX, AZ    MOCLDY    91  29  11 W12       29.73R                  
PORTLAND, OR   PTCLDY    60  38  43 N5        29.95R                  
RENO, NV       MOCLDY    70  34  26 NW7       29.88R                  
SALT LAKE CITY MOCLDY    63  43  48 NW3       29.91R                  
SAN DIEGO, CA  CLOUDY    60  53  77 VRB3      29.95R                  
SAN FRANCISCO, PTCLDY    57  47  69 SW13G24   29.85R                  
SAN JOSE, CA   CLEAR     60  45  57 S18       29.85R                  
SEATTLE, WA    PTCLDY    51  39  63 N7        30.02S                  
TIJUANA, MEX   CLOUDY    57  55  94 CALM      29.96R                  

$$
  
STATION/POSITION TIME  TEMP    WIND        PRES    VSBY  WAVE
                       AIR SEA DIR/SP/G                  HT/PER
                 (UTC) (F)     (DEG/KT/KT) (MB)    (MI)  (FT/S)
WEST SANTA BARBA 0340   56 56  310/ 12/ 14 1012.8R
EAST SANTA BARBA 0350   55 56  270/ 14/ 16 1011.9R         4/11
SANTA MONICA BAY 0340   57 59  330/  6/  8 1013.6R
SAN CLEMENTE BAS 0350   58 60  290/ 10/ 14 1012.8R         4/16

SKY/WX - Weather  TMP - Temperature  DP - Dew Point  RH - Humidity
WIND - Wind Direction/Speed PRES - Barometric Pressure VSB - Visibility
WCI - Wind Chill Index E13G22 Wind - East Wind 13 mph/Gusts of 22 mph

Trending Headlines

Trending Entertainment Headlines

Rancho Mirage Radar Loop

Use the map search tool if you want to place a location marker on the radar map...

Rancho Mirage Quick Facts

National Two Day Weather Forecast


E-mail the Rancho Mirage Weather Forecast

Voice your opinion or tell us about page issues...